Location: ??
(35.4627°N, 139.3695°E)
Time: 07:40:55
(UTC+00:00)

SJ-7 - Pass Details

Date: 25 November 2020
Orbit: 556 x 601 km, 97.7° (Epoch: 17 January)

Event Time Altitude Azimuth Distance (km) Brightness Sun altitude
Rises 20:41:03 0° 6° (N) 2,769 7.8 -9.8°
Reaches altitude 10° 20:43:13 10° 2° (N) 1,874 6.9 -9.4°
Maximum altitude 20:47:11 55° 285° (WNW) 694 4.5 -8.6°
Drops below altitude 10° 20:51:11 10° 207° (SSW) 1,887 7.0 -7.9°
Sets 20:53:22 0° 203° (SSW) 2,790 7.9 -7.4°
